Tracking 23610 objects as of 19-Sep-2021
HD Live streaming from Space Station
objects crossing your sky now

DELTA 1 DEB

Track DELTA 1 DEB now!
10-day predictions


NORAD ID: 37637
Int'l Code: 1978-026HY
Perigee: 868.0 km
Apogee: 977.0 km
Inclination: 98.8 °
Period: 103.3 minutes
Semi major axis: 7293 km
RCS: 0.0061 m2 (small)
Launch date: March 5, 1978
Source: United States (US)
Launch site: AIR FORCE WESTERN TEST RANGE (AFWTR)

Note: This is SATELLITE DEBRIS
aabbcc
Your satellite tracking list
Your tracking list is empty




NASA's NSSDC Master Catalog

Two Line Element Set (TLE):
1 37637U 78026HY  21261.22211192  .00000067  00000-0  80498-4 0  9997
2 37637  98.7735 247.1552 0074730 305.6291  53.7926 13.93802710953564
Source of the keplerian elements: AFSPC